Orbital Elements at Epoch 2459200.5 (2020-Dec-17.0) TDB
Reference: JPL 13 (heliocentric ecliptic J2000)
Element | Value | Uncertainty (1-sigma) | Units |
e | .1279703814169818 | 5.6585e-08 | |
a | 2.382977349164689 | 1.0576e-08 | au |
q | 2.078026828884055 | 1.3705e-07 | au |
i | 5.959195882563988 | 5.2843e-06 | deg |
node | 207.9321140374325 | 6.3195e-05 | deg |
peri | 163.8494262278956 | 6.8599e-05 | deg |
M | 92.05452410589179 | 2.6698e-05 | deg |
tp | 2458856.925490859597 (2020-Jan-08.42549086) | 9.8803e-05 | TDB |
period | 1343.625688057071 3.68 | 8.9445e-06 2.449e-08 | d yr |
n | .2679317634367146 | 1.7836e-09 | deg/d |
Q | 2.687927869445322 | 1.1929e-08 | au |
|
| | Orbit Determination Parameters
Additional Information
|